Skip Page Navigation
NASA JPL Caltech
NASA Logo - Jet Propulsion Laboratory + View the NASA Portal
+ Center for Near-Earth Object Studies
JPL Home Earth Solar System Stars & Galaxies Technology
JPL Solar System Dynamics
BODIES ORBITS EPHEMERIDES TOOLS PHYSICAL DATA DISCOVERY FAQ SITE MAP
IMPORTANT: The SSD Announcement email list is now available. Major changes are coming in the near future, including possible hostname and/or URL changes. To be notified of such changes, subscribe to this email list.

Please visit this page for more details.


JPL Small-Body Database Browser
Search: [ help ]  
359335 (2009 QA14)
Classification: Main-belt Asteroid          SPK-ID: 2359335
Ephemeris | Orbit Diagram | Orbital Elements | Mission Design | Physical Parameters | Discovery Circumstances | Close-Approach Data ]

[ show orbit diagram ]
Orbital Elements at Epoch 2458600.5 (2019-Apr-27.0) TDB
Reference: JPL 11 (heliocentric ecliptic J2000)
 Element Value Uncertainty (1-sigma)   Units 
e .1850909147276915 8.4577e-08  
a 3.149734005291059 5.7367e-08 au
q 2.566746857102821 2.8893e-07 au
i 15.24720908768352 8.9909e-06 deg
node 340.4618318780766 2.7701e-05 deg
peri 292.2264634004371 3.9955e-05 deg
M 321.7111705681081 2.2856e-05 deg
tp 2458817.659500579933
(2019-Nov-30.15950058)
0.00013011 TDB
period 2041.781411673546
5.59
5.5782e-05
1.527e-07
d
yr
n .1763166213296682 4.817e-09 deg/d
Q 3.732721153479297 6.7985e-08 au
  Orbit Determination Parameters
   # obs. used (total)      108  
   data-arc span      6265 days (17.15 yr)  
   first obs. used      2002-04-08  
   last obs. used      2019-06-03  
   planetary ephem.      DE431  
   SB-pert. ephem.      SB431-N16  
   condition code      0  
   norm. resid. RMS      .6166  
   source      ORB  
   producer      Otto Matic  
   solution date      2019-Sep-24 06:44:35  

Additional Information
 Earth MOID = 1.59702 au 
 Jupiter MOID = 1.76756 au 
 T_jup = 3.127 
[ show covariance matrix ]

Ephemeris | Orbit Diagram | Orbital Elements | Mission Design | Physical Parameters | Discovery Circumstances | Close-Approach Data ]

Physical Parameter Table
Parameter Symbol Value Units Sigma Reference Notes
absolute magnitude H 15.7   n/a MPO434266  

359335 (2009 QA14)          Discovered 2009-Aug-16 by Spacewatch at Kitt Peak
Reference: 20130327/Numbers.arcLast Updated: 2013-03-29

[ show close-approach data ]
Ephemeris | Orbit Diagram | Orbital Elements | Mission Design | Physical Parameters | Discovery Circumstances | Close-Approach Data ]
ABOUT SSD CREDITS/AWARDS PRIVACY/COPYRIGHT GLOSSARY LINKS
FirstGov
(server date/time)  
NASA Home Page
Site Manager:   Ryan S. Park
Webmaster  Alan B. Chamberlin